Location: Dannhausen
(51.8650°N, 10.1026°E)
Time: 09:28:45
(UTC+00:00)

CZ-2C R/B - Pass Details

Date: 09 April 2020
Orbit: 705 x 907 km, 98.1° (Epoch: 23 May)

Event Time Altitude Azimuth Distance (km) Brightness Sun altitude
Rises 18:32:57 0° 159° (SSE) 3,143 5.8 -4.6°
Reaches altitude 10° 18:35:14 10° 158° (SSE) 2,207 5.0 -4.9°
Maximum altitude 18:40:02 78° 74° (ENE) 732 2.9 -5.6°
Drops below altitude 10° 18:44:48 10° 348° (NNW) 2,188 5.9 -6.3°
Sets 18:47:04 0° 347° (NNW) 3,115 6.7 -6.6°
